Weather History for Tucson Davis Monthan, AZ

Change the Weather History Date:

Saturday, September 7, 2013

  Actual Average Record
Temperature  
Mean Temperature 79 °F -  
Max Temperature 86 °F 96 °F 104 °F (1952)
Min Temperature 72 °F 69 °F 61 °F (1976)
Cooling Degree Days 14    
Growing Degree Days 29 (Base 50)    
Moisture  
Dew Point 62 °F    
Average Humidity 56    
Maximum Humidity 78    
Minimum Humidity 41    
Precipitation  
Precipitation 0.00 in - - ()
Sea Level Pressure  
Sea Level Pressure 29.94 in    
Wind  
Wind Speed 10 mph (ESE)    
Max Wind Speed 18 mph    
Max Gust Speed -    
Visibility 10 miles    
Events Rain    
Averages and records for this station are not official NWS values.
T = Trace of Precipitation, MM = Missing Value Source: NWS Daily Summary

Daily Weather History Graph

Daily Weather History Graph

Search for Another Location

Airport:

Trip Planner

Search our weather history database for the weather conditions in past years. The results will help you decide how hot, cold, wet, or windy it might be!

Date:

Astronomy

Sep. 07, 2013 Rise Set
Actual Time 6:02 AM MST 6:39 PM MST
Civil Twilight 5:37 AM MST 7:04 PM MST
Nautical Twilight 5:08 AM MST 7:33 PM MST
Astronomical Twilight 4:39 AM MST 8:02 PM MST
Moon 8:09 AM MST (9/7) 7:53 PM MST (9/7)
Length of Visible Light 13h 26m
Length of Day
12h 36m
Waxing Crescent, 6% of the Moon is Illuminated
Sep 7
Waxing Crescent
Sep 12
First Quarter
Sep 19
Full
Sep 26
Last Quarter
Oct 4
New

Hourly Weather History & Observations

Time (MST) Temp. Heat Index Dew Point Humidity Pressure Visibility Wind Dir Wind Speed Gust Speed Precip Events Conditions
12:58 AM 78.1 °F - 61.9 °F 57% 29.90 in 10.0 mi South 12.7 mph - N/A   Mostly Cloudy
1:53 AM 77.0 °F - 62.6 °F 61% 30.04 in 10.0 mi SSE 6.9 mph - N/A Rain Light Rain
1:58 AM 77.4 °F - 62.6 °F 60% 29.90 in 10.0 mi South 6.9 mph - 0.00 in Rain Light Rain
2:13 AM 77.0 °F - 64.4 °F 65% 30.04 in 9.0 mi SW 8.1 mph - N/A   Light Drizzle
2:18 AM 77.0 °F - 62.6 °F 61% 30.04 in 9.0 mi West 9.2 mph - N/A Rain Light Rain
2:41 AM 75.2 °F - 64.4 °F 69% 30.05 in 10.0 mi West 12.7 mph - N/A   Scattered Clouds
2:43 AM 75.2 °F - 64.4 °F 69% 30.05 in 10.0 mi WSW 10.4 mph - N/A Rain Light Rain
2:58 AM 73.4 °F - 64.2 °F 73% 29.93 in 10.0 mi West 9.2 mph - 0.00 in   Light Drizzle
3:17 AM 73.4 °F - 64.4 °F 73% 30.05 in 10.0 mi WSW 9.2 mph - N/A   Scattered Clouds
3:58 AM 73.2 °F - 64.6 °F 74% 29.91 in 10.0 mi NNW 5.8 mph - 0.00 in   Scattered Clouds
4:58 AM 72.5 °F - 65.1 °F 78% 29.91 in 10.0 mi SSE 2.3 mph - N/A   Mostly Cloudy
5:58 AM 73.4 °F - 64.4 °F 73% 29.90 in 10.0 mi SE 5.8 mph - N/A   Scattered Clouds
6:58 AM 73.8 °F - 63.7 °F 71% 29.90 in 10.0 mi South 5.8 mph - N/A   Mostly Cloudy
7:58 AM 76.6 °F - 62.1 °F 61% 29.90 in 10.0 mi ESE 9.2 mph - N/A   Partly Cloudy
8:58 AM 78.8 °F - 61.7 °F 56% 29.93 in 10.0 mi ESE 16.1 mph - N/A   Clear
9:25 AM 78.8 °F - 60.8 °F 54% 30.05 in 10.0 mi East 10.4 mph - N/A   Light Drizzle
9:35 AM 78.8 °F - 62.6 °F 57% 30.05 in 10.0 mi East 9.2 mph - N/A   Partly Cloudy
9:58 AM 79.7 °F - 62.4 °F 55% 29.94 in 10.0 mi East 10.4 mph - 0.00 in   Partly Cloudy
10:04 AM 78.8 °F - 62.6 °F 57% 30.06 in 10.0 mi SE 10.4 mph - N/A Rain Light Rain
10:20 AM 77.0 °F - 64.4 °F 65% 30.05 in 10.0 mi East 8.1 mph - N/A   Partly Cloudy
10:58 AM 81.1 °F 82.1 °F 61.9 °F 52% 29.93 in 10.0 mi East 9.2 mph - 0.00 in   Scattered Clouds
11:10 AM 80.6 °F 81.5 °F 60.8 °F 51% 30.05 in 10.0 mi ESE 8.1 mph - N/A   Light Drizzle
11:39 AM 80.6 °F 81.8 °F 62.6 °F 54% 30.04 in 10.0 mi ESE 9.2 mph - N/A   Partly Cloudy
11:58 AM 81.1 °F 82.0 °F 61.2 °F 51% 29.92 in 10.0 mi SE 10.4 mph - 0.00 in   Partly Cloudy
12:07 PM 82.4 °F 82.9 °F 60.8 °F 48% 30.03 in 10.0 mi SE 8.1 mph - N/A   Light Drizzle
12:16 PM 82.4 °F 82.9 °F 60.8 °F 48% 30.03 in 10.0 mi Variable 4.6 mph - N/A   Partly Cloudy
12:58 PM 84.2 °F 84.6 °F 61.3 °F 46% 29.90 in 10.0 mi ESE 10.4 mph - 0.00 in   Scattered Clouds
1:58 PM 82.2 °F 82.4 °F 59.7 °F 46% 29.88 in 10.0 mi East 18.4 mph - N/A   Partly Cloudy
2:47 PM 82.4 °F 82.9 °F 60.8 °F 48% 29.97 in 10.0 mi East 18.4 mph - N/A   Light Drizzle
2:56 PM 82.4 °F 82.5 °F 59.0 °F 45% 29.97 in 10.0 mi East 13.8 mph - N/A   Partly Cloudy
2:58 PM 82.4 °F 82.5 °F 59.0 °F 45% 29.85 in 10.0 mi East 13.8 mph - 0.00 in   Partly Cloudy
3:58 PM 86.0 °F 85.9 °F 60.4 °F 42% 29.81 in 10.0 mi East 6.9 mph - N/A   Clear
4:58 PM 86.0 °F 85.7 °F 59.9 °F 41% 29.81 in 10.0 mi East 6.9 mph - N/A   Clear
5:58 PM 86.7 °F 86.8 °F 60.8 °F 42% 29.81 in 10.0 mi East 9.2 mph - N/A   Clear
6:58 PM 83.8 °F 84.1 °F 60.8 °F 46% 29.82 in 10.0 mi East 10.4 mph - N/A   Mostly Cloudy
7:24 PM 82.4 °F 83.4 °F 62.6 °F 51% 29.95 in 10.0 mi East 12.7 mph - N/A   Light Drizzle
7:39 PM 80.6 °F 81.8 °F 62.6 °F 54% 29.95 in 10.0 mi East 11.5 mph - N/A   Partly Cloudy
7:58 PM 82.2 °F 82.7 °F 61.0 °F 48% 29.83 in 10.0 mi ESE 11.5 mph - 0.00 in   Scattered Clouds
8:58 PM 81.9 °F 82.2 °F 59.5 °F 47% 29.85 in 10.0 mi East 5.8 mph - N/A   Mostly Cloudy
9:58 PM 79.9 °F - 62.1 °F 54% 29.85 in 10.0 mi ESE 6.9 mph - N/A   Overcast
10:58 PM 78.8 °F - 63.0 °F 58% 29.83 in 10.0 mi SE 10.4 mph - N/A   Mostly Cloudy
11:51 PM 78.8 °F - 60.8 °F 54% 29.96 in 10.0 mi East 15.0 mph - N/A   Light Drizzle
11:58 PM 79.0 °F - 61.7 °F 55% 29.83 in 10.0 mi ESE 16.1 mph - 0.00 in   Light Drizzle